This is the latest recevied weather packets stored in our database for station/object SR2CPA-13. If no packets are shown the sender has not sent any weather packets the latest 10 day(s).
| Time | Temp. | Humidity | Pressure | Rain* | Wind** | Luminosity | Snow |
|---|---|---|---|---|---|---|---|
| 1778318566 | 16.11° C | 55% | 0 hPa | 0 mm | - | - | - |
| 1778317946 | 16.67° C | 54% | 0 hPa | 0 mm | - | - | - |
| 1778317346 | 15.56° C | 56% | 0 hPa | 0 mm | - | - | - |
| 1778316726 | 15° C | 58% | 0 hPa | 0 mm | - | - | - |
| 1778316126 | 16.11° C | 58% | 0 hPa | 0 mm | - | - | - |
| 1778315526 | 15.56° C | 59% | 0 hPa | 0 mm | - | - | - |
| 1778314906 | 15.56° C | 60% | 0 hPa | 0 mm | - | - | - |
| 1778314306 | 14.44° C | 61% | 0 hPa | 0 mm | - | - | - |
| 1778313706 | 14.44° C | 62% | 0 hPa | 0 mm | - | - | - |
| 1778313106 | 15° C | 61% | 0 hPa | 0 mm | - | - | - |
| 1778312506 | 14.44° C | 63% | 0 hPa | 0 mm | - | - | - |
| 1778311886 | 13.89° C | 68% | 0 hPa | 0 mm | - | - | - |
| 1778311286 | 13.89° C | 66% | 0 hPa | 0 mm | - | - | - |
| 1778310666 | 13.89° C | 68% | 0 hPa | 0 mm | - | - | - |
| 1778310066 | 13.33° C | 71% | 0 hPa | 0 mm | - | - | - |
| 1778309446 | 13.33° C | 74% | 0 hPa | 0 mm | - | - | - |
| 1778308846 | 13.33° C | 74% | 0 hPa | 0 mm | - | - | - |
| 1778308226 | 13.33° C | 80% | 0 hPa | 0 mm | - | - | - |
| 1778307625 | 13.33° C | 83% | 0 hPa | 0 mm | - | - | - |
| 1778307025 | 12.78° C | 88% | 0 hPa | 0 mm | - | - | - |
| 1778306425 | 11.67° C | 89% | 0 hPa | 0 mm | - | - | - |
| 1778305825 | 12.22° C | 92% | 0 hPa | 0 mm | - | - | - |
| 1778305225 | 11.67° C | 98% | 0 hPa | 0 mm | - | - | - |
| 1778304605 | 11.67° C | 99% | 0 hPa | 0 mm | - | - | - |
| 1778304006 | 10.56° C | 99% | 0 hPa | 0 mm | - | - | - |
* Rain latest hour (hover to see other rain measurements)
** Current wind speed in m/s (hover to see current wind gust speed)